| time (UTC) | temp C | wind direction | speed KPH | gust KPH | rain 1hr cm | rain 24hr cm | rain mn cm | humidity % | barometer mb |
| 20260507020033 | 8 | 294 | 0.0 | 4.8 | 0.15 | 1.57 | 1.57 | 96 | 1007.9 |
| 20260507014532 | 8 | 0 | 0.0 | 6.4 | 0.18 | 1.57 | 1.57 | 96 | 1007.8 |
| 20260507013038 | 9 | 327 | 1.6 | 6.4 | 0.10 | 1.47 | 1.47 | 96 | 1007.2 |
| 20260507011539 | 10 | 0 | 0.0 | 1.6 | 0.05 | 1.45 | 1.45 | 96 | 1007.2 |
| 20260507010032 | 10 | 257 | 0.0 | 1.6 | 0.05 | 1.40 | 1.40 | 96 | 1006.8 |
| 20260507004531 | 10 | 0 | 0.0 | 3.2 | 0.18 | 1.40 | 1.40 | 96 | 1006.7 |
| 20260507003032 | 10 | 280 | 0.0 | 3.2 | 0.28 | 1.40 | 1.40 | 96 | 1006.3 |
| 20260507001536 | 11 | 0 | 0.0 | 1.6 | 0.41 | 1.40 | 1.40 | 96 | 1006.1 |
| 20260507000030 | 11 | 0 | 0.0 | 6.4 | 0.38 | 1.32 | 1.32 | 95 | 1005.8 |
| 20260506234541 | 13 | 286 | 0.0 | 3.2 | 0.23 | 1.19 | 1.19 | 97 | 1005.2 |
| 20260506233034 | 13 | 0 | 0.0 | 3.2 | 0.15 | 1.12 | 1.12 | 97 | 1004.7 |
| 20260506231535 | 13 | 240 | 0.0 | 1.6 | 0.05 | 0.99 | 0.99 | 96 | 1004.6 |
| 20260506230030 | 13 | 0 | 0.0 | 3.2 | 0.03 | 0.97 | 0.97 | 96 | 1004.4 |
| 20260506224532 | 13 | 0 | 0.0 | 4.8 | 0.03 | 0.97 | 0.97 | 96 | 1004.6 |
| 20260506223031 | 13 | 251 | 0.0 | 3.2 | 0.00 | 0.94 | 0.94 | 95 | 1004.6 |
| 20260506221529 | 14 | 244 | 0.0 | 3.2 | 0.00 | 0.94 | 0.94 | 94 | 1004.8 |
| 20260506220034 | 14 | 140 | 1.6 | 6.4 | 0.00 | 0.94 | 0.94 | 94 | 1004.6 |
| 20260506214533 | 14 | 223 | 1.6 | 4.8 | 0.00 | 0.94 | 0.94 | 94 | 1004.7 |
| 20260506213033 | 14 | 0 | 1.6 | 4.8 | 0.00 | 0.94 | 0.94 | 94 | 1004.6 |
| 20260506211536 | 15 | 236 | 1.6 | 4.8 | 0.00 | 0.94 | 0.94 | 95 | 1004.7 |
| 20260506210031 | 14 | 191 | 1.6 | 4.8 | 0.03 | 0.94 | 0.94 | 95 | 1004.8 |
| 20260506204534 | 14 | 0 | 1.6 | 6.4 | 0.03 | 0.94 | 0.94 | 95 | 1004.9 |
| 20260506203057 | 14 | 275 | 3.2 | 19.3 | 0.03 | 0.94 | 0.94 | 93 | 1005.0 |
| 20260506201532 | 15 | 213 | 1.6 | 11.3 | 0.03 | 0.94 | 0.94 | 95 | 1005.1 |
| 20260506200044 | 15 | 166 | 1.6 | 6.4 | 0.08 | 0.91 | 0.91 | 94 | 1005.1 |
| 20260506194531 | 15 | 205 | 1.6 | 4.8 | 0.13 | 0.91 | 0.91 | 95 | 1005.2 |
| 20260506193032 | 15 | 130 | 0.0 | 3.2 | 0.23 | 0.91 | 0.91 | 97 | 1005.3 |
| 20260506191530 | 14 | 145 | 0.0 | 1.6 | 0.30 | 0.91 | 0.91 | 97 | 1005.3 |
| 20260506190044 | 14 | 0 | 0.0 | 1.6 | 0.33 | 0.84 | 0.84 | 96 | 1005.8 |
| 20260506184531 | 14 | 0 | 0.0 | 1.6 | 0.33 | 0.76 | 0.76 | 96 | 1005.8 |
| 20260506183031 | 14 | 264 | 0.0 | 6.4 | 0.36 | 0.66 | 0.66 | 95 | 1006.2 |
| 20260506181534 | 14 | 194 | 0.0 | 3.2 | 0.41 | 0.58 | 0.58 | 95 | 1006.2 |
| 20260506180035 | 14 | 0 | 0.0 | 3.2 | 0.41 | 0.51 | 0.51 | 95 | 1006.8 |
| 20260506174535 | 14 | 217 | 0.0 | 3.2 | 0.38 | 0.43 | 0.43 | 95 | 1007.2 |
| 20260506173039 | 14 | 170 | 0.0 | 1.6 | 0.30 | 0.30 | 0.30 | 94 | 1007.2 |
| 20260506171534 | 15 | 0 | 0.0 | 4.8 | 0.18 | 0.18 | 0.18 | 93 | 1007.1 |
| 20260506170032 | 15 | 0 | 0.0 | 4.8 | 0.10 | 0.10 | 0.10 | 92 | 1007.1 |
| 20260506164536 | 15 | 207 | 0.0 | 3.2 | 0.05 | 0.05 | 0.05 | 90 | 1007.2 |
| 20260506163050 | 15 | 232 | 0.0 | 4.8 | 0.00 | 0.00 | 0.00 | 86 | 1007.3 |
| 20260506161531 | 16 | 231 | 0.0 | 3.2 | 0.00 | 0.00 | 0.00 | 85 | 1007.5 |
| 20260506160036 | 16 | 258 | 1.6 | 9.7 | 0.00 | 0.00 | 0.00 | 83 | 1007.6 |
| 20260506154537 | 16 | 267 | 0.0 | 6.4 | 0.00 | 0.00 | 0.00 | 84 | 1007.8 |
| 20260506153032 | 16 | 0 | 1.6 | 6.4 | 0.00 | 0.00 | 0.00 | 85 | 1008.1 |
| 20260506151538 | 16 | 266 | 1.6 | 11.3 | 0.00 | 0.00 | 0.00 | 82 | 1008.5 |
| 20260506150035 | 16 | 178 | 1.6 | 6.4 | 0.00 | 0.00 | 0.00 | 80 | 1008.6 |
| 20260506144532 | 16 | 242 | 1.6 | 4.8 | 0.00 | 0.00 | 0.00 | 78 | 1008.3 |
| 20260506143032 | 16 | 268 | 1.6 | 3.2 | 0.00 | 0.00 | 0.00 | 78 | 1008.1 |
| 20260506141529 | 16 | 216 | 1.6 | 6.4 | 0.00 | 0.00 | 0.00 | 79 | 1008.2 |
| 20260506140037 | 16 | 192 | 1.6 | 6.4 | 0.00 | 0.00 | 0.00 | 81 | 1008.3 |
| 20260506134532 | 15 | 223 | 1.6 | 4.8 | 0.00 | 0.00 | 0.00 | 82 | 1008.2 |
| 20260506133033 | 15 | 245 | 1.6 | 4.8 | 0.00 | 0.00 | 0.00 | 83 | 1008.3 |
| 20260506131536 | 15 | 252 | 1.6 | 9.7 | 0.00 | 0.00 | 0.00 | 84 | 1008.5 |
| 20260506130033 | 14 | 250 | 1.6 | 6.4 | 0.00 | 0.00 | 0.00 | 84 | 1009.0 |
| 20260506124532 | 14 | 327 | 1.6 | 3.2 | 0.00 | 0.00 | 0.00 | 84 | 1008.7 |
| 20260506123032 | 14 | 234 | 0.0 | 4.8 | 0.00 | 0.00 | 0.00 | 84 | 1008.5 |
| 20260506121538 | 14 | 0 | 0.0 | 6.4 | 0.00 | 0.00 | 0.00 | 84 | 1008.2 |
| 20260506120034 | 14 | 238 | 0.0 | 3.2 | 0.00 | 0.00 | 0.00 | 85 | 1008.7 |
| 20260506114531 | 13 | 174 | 0.0 | 1.6 | 0.00 | 0.00 | 0.00 | 86 | 1008.7 |
| 20260506113030 | 13 | 157 | 0.0 | 3.2 | 0.00 | 0.00 | 0.00 | 86 | 1008.7 |
| 20260506111534 | 13 | 240 | 0.0 | 1.6 | 0.00 | 0.00 | 0.00 | 88 | 1008.9 |
| 20260506110036 | 12 | 236 | 0.0 | 4.8 | 0.00 | 0.00 | 0.00 | 90 | 1008.7 |
| 20260506104534 | 11 | 0 | 0.0 | 1.6 | 0.00 | 0.00 | 0.00 | 91 | 1008.6 |
| 20260506103031 | 11 | 0 | 0.0 | 1.6 | 0.00 | 0.00 | 0.00 | 91 | 1008.7 |
| 20260506101533 | 10 | 0 | 0.0 | 1.6 | 0.00 | 0.00 | 0.00 | 92 | 1008.9 |
| 20260506100031 | 10 | 0 | 0.0 | 1.6 | 0.00 | 0.00 | 0.00 | 92 | 1009.1 |
| 20260506094532 | 10 | 0 | 0.0 | 0.0 | 0.00 | 0.00 | 0.00 | 91 | 1008.8 |
| 20260506093032 | 10 | 0 | 0.0 | 0.0 | 0.00 | 0.00 | 0.00 | 90 | 1008.6 |
| 20260506091534 | 10 | 0 | 0.0 | 0.0 | 0.00 | 0.00 | 0.00 | 89 | 1008.8 |
| 20260506090033 | 11 | 0 | 0.0 | 0.0 | 0.00 | 0.00 | 0.00 | 87 | 1008.6 |
| 20260506084537 | 12 | 0 | 0.0 | 1.6 | 0.00 | 0.00 | 0.00 | 85 | 1008.9 |
| 20260506083032 | 12 | 0 | 0.0 | 1.6 | 0.00 | 0.00 | 0.00 | 85 | 1008.9 |
| 20260506081540 | 12 | 0 | 0.0 | 1.6 | 0.00 | 0.00 | 0.00 | 85 | 1009.1 |
| 20260506073035 | 12 | 0 | 0.0 | 0.0 | 0.00 | 0.00 | 0.00 | 83 | 1009.3 |
| 20260506071531 | 12 | 0 | 0.0 | 1.6 | 0.00 | 0.00 | 0.00 | 83 | 1009.1 |
| 20260506061535 | 13 | 0 | 0.0 | 1.6 | 0.00 | 0.00 | 0.00 | 81 | 1009.1 |
| 20260506044538 | 15 | 0 | 0.0 | 1.6 | 0.00 | 0.00 | 0.00 | 78 | 1009.2 |
| 20260506043031 | 15 | 0 | 0.0 | 1.6 | 0.00 | 0.00 | 0.00 | 77 | 1009.3 |
| 20260506041549 | 15 | 0 | 0.0 | 1.6 | 0.00 | 0.00 | 0.00 | 76 | 1009.1 |
| 20260506040035 | 15 | 166 | 0.0 | 3.2 | 0.00 | 0.00 | 0.00 | 77 | 1009.2 |
| 20260506034546 | 16 | 238 | 0.0 | 4.8 | 0.00 | 0.00 | 0.00 | 78 | 1009.3 |
| 20260506033036 | 16 | 0 | 0.0 | 0.0 | 0.00 | 0.00 | 0.00 | 78 | 1009.3 |
| 20260506031533 | 16 | 159 | 0.0 | 1.6 | 0.00 | 0.00 | 0.00 | 77 | 1009.2 |
| 20260506030037 | 16 | 223 | 0.0 | 3.2 | 0.00 | 0.00 | 0.00 | 77 | 1009.2 |
| 20260506024531 | 16 | 0 | 0.0 | 6.4 | 0.00 | 0.00 | 0.00 | 77 | 1009.1 |
| 20260506023034 | 15 | 254 | 0.0 | 4.8 | 0.00 | 0.00 | 0.00 | 80 | 1009.2 |
| 20260506021532 | 15 | 0 | 0.0 | 0.0 | 0.00 | 0.00 | 0.00 | 83 | 1009.2 |